Погода в Северном Лакхимпуре

Индия     27°14′42″N   94°06′15″E
темп.,
°C
ветер,
м/с
пор.,
м/с
влажн.,
%
обл.,
%
осадки,
мм/ч
давл.,
гПа
погр.,
м
7 марта, вс
вс723:30+18с225918 0.1 101647
02:30+17с12643 0.0 101543
05:30+17ссв126623 0.1 101658
08:30+20св125867 0.1 1018260
11:30+27св113640 0.1 10151578
14:30+27з123420 0.0 10131424
17:30+22с234510 0.0 101426
20:30+20сз225415 0.0 101832
8 марта, пн
пн823:30+20ссз225035 0.0 101836
02:30+19с125410 0.0 101640
05:30+17сз006237 0.0 101728
08:30+25в11428 0.0 1019394
11:30+28вюв323125 0.0 10151509
14:30+29вюв11283 0.0 10132203
17:30+23сз33452 0.0 101436
20:30+21сз22508 0.0 101740
9 марта, вт
вт923:30+20сз235026 0.0 101632
02:30+19ссз115417 0.0 101527
05:30+19ссв125435 0.0 101642
08:30+23всв124777 0.0 1017283
11:30+28с213371 0.1 10151148
14:30+29вюв22298 0.0 10121890
17:30+24с12404 0.0 101324
20:30+23ссз334427 0.0 101657
10 марта, ср
ср1023:30+22ссз014846 0.1 101624
02:30+21с125049 0.0 101531
05:30+21с225273 0.0 101634
08:30+24ссв224999 0.1 1017329
11:30+28вюв223694 0.1 10151039
14:30+28в223440 0.0 10121286
17:30+24ссв224630 0.0 101323
20:30+21ссз22530 0.0 101630
11 марта, чт
чт1123:30+20сз22572 0.1 101629
02:30+19с125836 0.0 101526
05:30+19с116234 0.0 101626
08:30+21св2359100 0.0 1018161
11:30+28св344074 0.2 10161012
14:30+28всв44389 0.0 10131185
17:30+23ссв225221 0.1 101424
20:30+21ссз225623 0.0 101726